www.pogodaiklimat.ru

Погода и климат >> Архив погоды >> Филиппины >> Лаоак


ПОГОДА в Лаоаке

  • Прогноз погоды в Лаоаке
  • Монитор погоды в Лаоаке

АРХИВ ПОГОДЫ в Лаоаке

Время (UTC), дата Ветер
(напр.,м/с)
 
Видим.   Явления Облачность Т
(С)
Тd
(С)
f
(%)
Тe
(С)
Тes
(С)
Комфортность P
(гПа)
Po
(гПа)
Тmin
(С)
Tmax
(С)
R
(мм)
R24
(мм)
S
(см)
00 12.06 Ю 2 8000 м слаб. дождь {гроза} 10/3 500 м
[Cb cap As trans Cs]
+28.4 +25.1 82 +41 +43 опасность
перегрева
1007.8 1007.2 +26.6 0.7
03 12.06 З 5 10 км мгла {гроза, дождь} 9/3 540 м
[Cu med, cong Ac As Cs]
+32.0 +25.2 67 +46 +50 опасность
перегрева
1008.4 1007.8 0.0
06 12.06 ЮЗ 6 10 км мгла {гроза, дождь} 9/3 500 м
[Cb calv Ac cuf Cs]
+32.6 +25.9 68 +48 +51 опасность
перегрева
1006.9 1006.3 0.0
09 12.06 ЮЗ 6 10 км мгла {гроза, туман} 9/4 500 м
[Cb cap Ac As Cs]
+31.7 +26.0 72 +47 +48 опасность
перегрева
1006.6 1006.0
12 12.06 ЮЗ 1 8000 м в посл. час ливневой дождь {гроза} 9/3 540 м
[Cu Sc Ac As Cs]
+27.4 +25.6 90 +40 +40 очень
душно
1008.0 1007.4 +32.6 0.4
15 12.06 Ю 1 7000 м гроза, ливневой дождь 10/5 500 м
[Cb cap Ac As]
+27.4 +25.3 88 +40 +40 очень
душно
1008.3 1007.7 0.0
18 12.06 Ю 2 10 км гроза без осадков 8/4 500 м
[Cb cap Cs]
+26.6 +25.6 94 +39 +39 очень
душно
1006.9 1006.3 0.1
21 12.06 Ю 1 9000 м гроза, ливневой дождь 9/4 500 м
[Cb cap Ac As]
+26.3 +25.2 94 +38 +38 очень
душно
1006.1 1005.5 0.0
00 13.06 Ю 5 2000 м гроза, ливневой дождь 10/5 500 м
[Cb cap As op]
+27.5 +26.2 93 +42 +42 опасность
перегрева
1008.5 1007.9 +25.6 6
03 13.06 Ю 3
{12}
6000 м слаб. ливневой дождь, в посл. час гроза 10/5 500 м
[Cb cap As op]
+25.4 +24.9 97 +36 +38 очень
душно
1008.3 1007.7 33
06 13.06 Ю 4 6000 м слаб. дождь {гроза} 10/5 480 м
[Cb cap As op]
+26.4 +25.6 95 +39 +40 очень
душно
1006.4 1005.8 34
09 13.06 Ю 5 8000 м мгла {дождь, туман} 10/3 540 м
[Cu med, cong Ac As Cs]
+28.0 +24.3 80 +39 +40 очень
душно
1006.5 1005.9 1
12 13.06 Ю 4 3000 м дождь {ливн. осадки} 10/4 540 м
[Cu Sc As op]
+24.4 +23.9 97 +33 +33 очень
душно
1009.1 1008.5 +28.1 8
15 13.06 Ю 3 8000 м в посл. час дождь 10/3 540 м
[Cu Sc Ac As Cs]
+24.4 +24.0 98 +34 +34 очень
душно
1007.1 1006.5 6
18 13.06 штиль 0 10 км {дождь} 3/1 540 м
[Cu med, cong Cs]
+24.0 +23.5 97 +32 +32 очень
душно
1005.2 1004.6 6
21 13.06 штиль 0 10 км 1/1 540 м
[Cu med, cong Ac As]
+23.8 +23.3 97 +32 +32 очень
душно
1004.7 1004.1
00 14.06 ЮЗ 2 4000 м гроза, ливневой дождь 9/4 500 м
[Cb cap Ac As]
+27.6 +25.5 88 +40 +42 очень
душно
1006.0 1005.4 +23.6 49
03 14.06 Ю 8
{15}
2000 м слаб. дождь {гроза} 10/6 480 м
[Cb cap As op]
+25.6 +24.8 95 +36 +36 очень
душно
1007.6 1007.0 10
06 14.06 Ю 6 1000 м дождь {гроза} 10/5 480 м
[Cb cap As op]
+25.4 +24.6 95 +36 +36 очень
душно
1006.1 1005.5 24
09 14.06 Ю 3 8000 м в посл. час дождь 10/5 500 м
[Cb cap Ac cuf Cs]
+26.8 +24.4 87 +38 +38 очень
душно
1004.5 1003.9 0.6
12 14.06 С 3 6000 м гроза, ливневой дождь 10/6 500 м
[Cb cap As op]
+26.0 +24.9 94 +37 +37 очень
душно
1006.3 1005.7 +26.8 1
15 14.06 Ю 2 6000 м слаб. дождь {гроза} 10/5 500 м
[Cb cap As op]
+24.0 +23.5 97 +32 +32 очень
душно
1008.3 1007.7 46
18 14.06 Ю 4 5000 м слаб. дождь {гроза} 10/3 540 м
[Cu Sc As op]
+23.4 +22.9 97 +33 +33 очень
душно
1006.5 1005.9 56
21 14.06 Ю 4 4000 м дождь 10/3 540 м
[Cu Sc As op]
+24.1 +23.6 97 +33 +33 очень
душно
1005.5 1004.9 6
00 15.06 Ю 4 7000 м слаб. дождь {туман} 10/3 540 м
[Cu med, cong As op]
+24.9 +24.0 95 +34 +35 очень
душно
1007.1 1006.5 +23.3 91
03 15.06 Ю 2 10 км осадки на расстоянии {туман} 9/1 540 м
[Cu Sc Ac As]
+28.0 +24.3 80 +39 +46 очень
душно
1006.8 1006.2 0.2
06 15.06 Ю 4 10 км мгла {дождь, туман} 10/4 540 м
[Cu Sc Ac As]
+29.2 +23.4 71 +40 +42 очень
душно
1006.0 1005.4 0.2
09 15.06 ЮЗ 2 10 км мгла {туман} 10/5 500 м
[Cb cap Ac As]
+29.8 +24.2 72 +42 +42 опасность
перегрева
1005.4 1004.8 0.0
12 15.06 Ю 1 10 км {ливн. осадки} 9/4 540 м
[Cu Sc Cs]
+27.8 +24.6 83 +39 +39 очень
душно
1006.1 1005.5 +29.2 0.0
15 15.06 ЮВ 1 10 км 10/4 540 м
[Cb cap Ac As]
+26.8 +24.7 88 +38 +38 очень
душно
1006.9 1006.3
18 15.06 штиль 0 10 км 9/1 540 м
[Cu med, cong Cs]
+25.4 +24.6 95 +36 +36 очень
душно
1005.4 1004.8
21 15.06 ЮВ 2 10 км 1/1 500 м
[Cb cap]
+24.8 +23.7 94 +34 +34 очень
душно
1006.3 1005.7
00 16.06 В 1 10 км мгла {туман} 9/1 540 м
[Cu med, cong Ac As]
+28.4 +24.7 80 +40 +43 очень
душно
1007.3 1006.7 +24.6 0.2
03 16.06 ЮЗ 4 10 км мгла {туман} 8/4 500 м
[Cb cap Ac cuf]
+31.2 +25.8 73 +46 +51 опасность
перегрева
1007.7 1007.1
06 16.06 ЮЗ 5 10 км мгла {туман} 6/3 500 м
[Cb cap Ac cuf Cs]
+32.6 +26.2 69 +49 +54 опасность
перегрева
1006.5 1005.9
09 16.06 ЮЗ 5 8000 м осадки на расстоянии {туман} 9/6 500 м
[Cb cap Ac As Cs]
+31.7 +25.9 71 +47 +47 опасность
перегрева
1006.8 1006.2
12 16.06 Ю 4 10 км зарница {туман} 9/3 500 м
[Cb cap Ac As Cs]
+29.7 +25.9 80 +44 +44 опасность
перегрева
1008.2 1007.6 +32.6
15 16.06 В 2 10 км гроза без осадков {ливн. осадки} 9/4 500 м
[Cb cap Ac As]
+26.7 +25.8 95 +40 +40 очень
душно
1009.8 1009.2 4
18 16.06 ЮВ 1 10 км в посл. час ливневой дождь {гроза} 9/4 500 м
[Cb cap Ac As]
+27.0 +26.2 95 +41 +41 опасность
перегрева
1008.9 1008.3 4
21 16.06 В 1 10 км 5/1 540 м
[Cu Sc Cs]
+26.4 +26.2 99 +40 +40 очень
душно
1008.5 1007.9
00 17.06 В 3 10 км мгла {туман} 9/1 540 м
[Cu Sc Cs]
+28.8 +26.2 86 +44 +48 опасность
перегрева
1009.3 1008.7 +25.5 4
03 17.06 З 3 9000 м мгла {туман} 9/1 540 м
[Cu Sc Ac As Cs]
+30.8 +25.6 74 +45 +54 опасность
перегрева
1009.2 1008.6
06 17.06 С 3 9000 м мгла {туман} 9/3 500 м
[Cb cap Ac As Cs]
+31.1 +26.1 75 +47 +53 опасность
перегрева
1008.5 1007.9
09 17.06 С 2 10 км мгла {туман} 9/3 500 м
[Cb cap Ac As Cs]
+31.2 +27.1 79 +49 +50 опасность
перегрева
1008.4 1007.8
12 17.06 В 1 10 км зарница {туман} 9/3 500 м
[Cb cap Ac As Cs]
+29.4 +27.0 87 +46 +46 опасность
перегрева
1010.1 1009.5 +32.2
15 17.06 В 1 10 км 9/3 540 м
[Cu Sc Ac As Cs]
+28.4 +26.8 91 +44 +44 опасность
перегрева
1011.1 1010.5
18 17.06 В 1 10 км 9/4 540 м
[Cu Sc Ac As]
+27.4 +26.1 93 +41 +41 опасность
перегрева
1010.2 1009.6
21 17.06 В 1 10 км 3/1 540 м
[Cu Sc Cs]
+26.4 +25.9 97 +39 +39 очень
душно
1009.7 1009.1
00 18.06 Ю 2 10 км мгла {туман} 4/1 540 м
[Cu med, cong Ac cast Cs]
+30.0 +26.4 81 +46 +51 опасность
перегрева
1010.4 1009.8 +25.7
03 18.06 СЗ 3 12 км мгла {туман} 3/3 540 м
[Cu med, cong Ci]
+32.0 +26.2 71 +48 +60 опасность
перегрева
1010.0 1009.4
06 18.06 С 4 12 км мгла {туман} 5/3 500 м
[Cb cap Ac cuf Cs]
+32.7 +27.0 72 +51 +58 опасность
перегрева
1009.2 1008.6
09 18.06 В 2 6000 м гроза, ливневой дождь 9/8 500 м
[Cb cap Ac As]
+28.0 +24.0 79 +39 +39 очень
душно
1008.6 1008.0 0.0
12 18.06 В 2 10 км зарница {гроза, ливн. осадки} 3/1 500 м
[Cb cap Ac lent Cs]
+25.8 +24.7 94 +37 +37 очень
душно
1009.9 1009.3 +32.9 9
15 18.06 В 1 10 км 3/1 540 м
[Cu Sc Ac As Cs]
+25.7 +25.0 96 +37 +37 очень
душно
1010.5 1009.9
18 18.06 В 1 10 км 4/1 540 м
[Cu Sc Cs]
+26.0 +25.2 95 +37 +37 очень
душно
1009.0 1008.4
21 18.06 ЮВ 1 10 км 4/1 540 м
[Cu Sc Cs]
+25.2 +24.8 98 +36 +36 очень
душно
1008.8 1008.2

 

Местоположение метеостанции Лаоак (Филиппины): широта 18.18 долгота 120.53 высота над уровнем моря 5 м.

В архиве по умолчанию представлена погода в Лаоаке за последнюю неделю. Архивные данные за месяц целиком и за предыдущие месяцы, начиная с января 2011 года, Вы можете получить, выбрав интересующий диапазон дат из раскрывающегося списка и нажав кнопку "Ввод!".


*Определитесь, кто Вы:
робот инопланетянин человек

Внимание! Время в таблицах - всемирное. Для получения местного времени необходимо прибавить поправку, которая равна 8 ч.

Смотрите также архив погоды в соседних городах и на ближайших метеорологических станциях:

Погода в Синайте (Филиппины) (34 км)
Погода в Апари (Филиппины) (118 км)
Погода в Тугегарао (Филиппины) (141 км)
Погода в Калаяне (Филиппины) (157 км)
Погода в Багио (Филиппины) (196 км)
Погода в Дагупане (Филиппины) (238 км)
Погода в Касигуране (Филиппины) (270 км)
Погода на Баско Радар (Филиппины) (291 км)
Погода в Балер Радар (Филиппины) (295 км)
Погода в Кабанатуане (Филиппины) (304 км)

Пояснения к столбцам:

Ветер - указаны скорость ветра в м/с - средняя за 10 мин, порывы в срок и между сроками (в фигурных скобках) и направление, откуда дует ветер: С - северный, СВ - северо-восточный, В - восточный, ЮВ - юго-восточный, Ю - южный, ЮЗ - юго-западный, З - западный, СЗ - северо-западный.
Видимость - горизонтальная дальность видимости в метрах или километрах. При видимости от 1 до 10 км при отсутствии осадков обычно наблюдается дымка, при ухудшении видимости до 1 км и менее - туман. В сухую погоду видимость может ухудшаться дымом, пылью или мглою.
Явления - указаны атмосферные явления, наблюдавшиеся в срок или в последний час перед сроком; фигурными скобками обозначены явления, наблюдавшиеся между сроками (за 1-3 часа до срока); квадратными скобками обозначены град или гололедные отложения с указанием их диаметра в мм.
Облачность - указаны через наклонную черту общая и нижняя облачность в баллах и высота нижней границы облаков в метрах; квадратными скобками обозначены формы облаков: Ci - перистые, Cs - перисто-слоистые, Cc - перисто-кучевые, Ac - высококучевые, As - высокослоистые, Sc - слоисто-кучевые, Ns - слоисто-дождевые, Cu - кучевые, Cb - кучево-дождевые. Подробнее классификацию облаков см. в Атласе облаков (PDF).
T - Температура воздуха - температура, измеренная на высоте 2 м над землей.
Td - Температура точки росы - температура, при понижении до которой содержащийся в воздухе водяной пар достигнет насыщения.
f - Относительная влажность воздуха - влажноcть воздуха, измеренная на высоте 2 м над землей.
Te - Эффективная температура - температура, которую ощущает одетый по сезону человек в тени. Характеристика душности погоды. При расчете учитывается влияние влажности воздуха и скорости ветра на теплоощущения человека.
Tes - Эффективная температура на солнце - температура, которую ощущает человек, с поправкой на солнечный нагрев. Характеристика знойности погоды. Зависит от высоты солнца над горизонтом, облачности и скорости ветра. Ночью, в пасмурную погоду, а также при ветре 12 м/с и более поправка равна нулю.
P - Атмосферное давление - приведенное к уровню моря атмосферное давление.
Po - Атмосферное давление - измеренное на уровне метеостанции атмосферное давление.
Tmin - Минимальная температура - минимум температуры воздуха на высоте 2 м над землей.
Tmax - Максимальная температура - максимум температуры воздуха на высоте 2 м над землей.
R - Количество осадков - Количество выпавших осадков за период времени, мм. При наведении курсора мыши на число - период времени, за который выпало указанное количество осадков.
R24 - Количество осадков - Количество выпавших осадков за 24 часа, мм.
S - Снежный покров - Высота снежного покрова, см. При наведении курсора мыши на число - состояние снежного покрова и степень покрытия местности в баллах.